Station Historical Data
Daily Summary for October 30, 2017 Units:  Metric    English   Both
« Previous Day
Next Day »
Daily Weekly Monthly Yearly Custom
  High: Low: Average:
Temperature: 16.8 °C -0.6 °C 7.3 °C
Dew Point: 6.4 °C -2.2 °C 1.7 °C
Humidity: 90% 37% 71%
Wind Speed: 8.2km/h 0km/h 0.6km/h
Wind Gust: 8.2km/h - -
Wind- - WSW
Pressure: 1019.9 hPa 1014.1 hPa -
Precipitation: 0 mm    
Historical Graphs
 
 
Tabular Data for October 30, 2017
Time Temperature Dew Point Pressure Wind Wind Speed Wind Gust Humidity Rainfall Rate (Hourly) solar Conditions
00:01 0.8 °C -1.2 °C 1014.1 hPa Calm     86% 0 mm WeatherDisplay:10.37 W/m2 CLR
00:06 0.8 °C -1.3 °C 1014.1 hPa Calm     86% 0 mm WeatherDisplay:10.37 W/m2 CLR
00:11 0.8 °C -1.4 °C 1014.1 hPa Calm     85% 0 mm WeatherDisplay:10.37 W/m2 CLR
00:16 0.8 °C -1.4 °C 1014.1 hPa Calm     85% 0 mm WeatherDisplay:10.37 W/m2 CLR
00:22 0.8 °C -1.4 °C 1014.1 hPa Calm     85% 0 mm WeatherDisplay:10.37 W/m2 CLR
00:27 0.8 °C -1.4 °C 1014.1 hPa Calm     85% 0 mm WeatherDisplay:10.37 W/m2 CLR
00:32 0.8 °C -1.4 °C 1014.4 hPa Calm     85% 0 mm WeatherDisplay:10.37 W/m2 CLR
00:37 0.8 °C -1.4 °C 1014.4 hPa Calm   0.2 km/h 85% 0 mm WeatherDisplay:10.37 W/m2 CLR
00:42 0.9 °C -1.3 °C 1014.4 hPa Calm     85% 0 mm WeatherDisplay:10.37 W/m2 CLR
00:47 0.9 °C -1.5 °C 1014.4 hPa Calm     84% 0 mm WeatherDisplay:10.37 W/m2 CLR
00:52 0.9 °C -1.4 °C 1014.4 hPa West 1.9 km/h   84% 0 mm WeatherDisplay:10.37 W/m2 CLR
00:57 1 °C -1.4 °C 1014.4 hPa Calm     84% 0 mm WeatherDisplay:10.37 W/m2 CLR
01:02 1.1 °C -1.3 °C 1014.4 hPa West 1.9 km/h   84% 0 mm WeatherDisplay:10.37 W/m2 CLR
01:07 1.1 °C -1.3 °C 1014.4 hPa Calm     84% 0 mm WeatherDisplay:10.37 W/m2 CLR
01:12 1.1 °C -1.3 °C 1014.4 hPa Calm     84% 0 mm WeatherDisplay:10.37 W/m2 CLR
01:17 1.1 °C -1.3 °C 1014.8 hPa WNW 1.9 km/h   84% 0 mm WeatherDisplay:10.37 W/m2 CLR
01:22 1 °C -1.6 °C 1014.8 hPa West 1.9 km/h 1.9 km/h 83% 0 mm WeatherDisplay:10.37 W/m2 CLR
01:28 1 °C -1.6 °C 1014.8 hPa Calm     83% 0 mm WeatherDisplay:10.37 W/m2 CLR
01:33 1 °C -1.4 °C 1014.8 hPa West 1.9 km/h   84% 0 mm WeatherDisplay:10.37 W/m2 CLR
01:38 1 °C -1.6 °C 1014.8 hPa Calm     83% 0 mm WeatherDisplay:10.37 W/m2 CLR
01:43 0.9 °C -1.6 °C 1014.8 hPa Calm     83% 0 mm WeatherDisplay:10.37 W/m2 CLR
01:48 0.9 °C -1.4 °C 1014.8 hPa West 1.9 km/h   84% 0 mm WeatherDisplay:10.37 W/m2 CLR
01:53 0.9 °C -1.4 °C 1014.8 hPa WNW 1.9 km/h   84% 0 mm WeatherDisplay:10.37 W/m2 CLR
01:58 0.9 °C -1.6 °C 1014.8 hPa WNW 1.9 km/h   83% 0 mm WeatherDisplay:10.37 W/m2 CLR
02:03 0.9 °C -1.6 °C 1014.8 hPa WNW 1.9 km/h   83% 0 mm WeatherDisplay:10.37 W/m2 CLR
02:09 1 °C -1.6 °C 1014.8 hPa West 1.9 km/h   83% 0 mm WeatherDisplay:10.37 W/m2 CLR
02:14 1.1 °C -1.7 °C 1014.8 hPa Calm     82% 0 mm WeatherDisplay:10.37 W/m2 CLR
02:19 1.1 °C -1.7 °C 1014.8 hPa Calm     82% 0 mm WeatherDisplay:10.37 W/m2 CLR
02:24 1.1 °C -1.5 °C 1015.1 hPa West 3.7 km/h 3.7 km/h 83% 0 mm WeatherDisplay:10.37 W/m2 CLR
02:29 1.1 °C -1.6 °C 1015.1 hPa West 1.9 km/h 1.9 km/h 82% 0 mm WeatherDisplay:10.37 W/m2 CLR
02:34 1.1 °C -1.6 °C 1015.1 hPa Calm     82% 0 mm WeatherDisplay:10.37 W/m2 CLR
02:39 1.1 °C -1.7 °C 1015.1 hPa Calm     82% 0 mm WeatherDisplay:10.37 W/m2 CLR
02:44 1.1 °C -1.7 °C 1015.1 hPa NW 1.6 km/h 1.6 km/h 82% 0 mm WeatherDisplay:10.37 W/m2 CLR
02:49 1.1 °C -1.5 °C 1015.1 hPa WNW 1.6 km/h   83% 0 mm WeatherDisplay:10.37 W/m2 CLR
02:54 1.1 °C -1.7 °C 1015.1 hPa Calm     82% 0 mm WeatherDisplay:10.37 W/m2 CLR
02:59 1.1 °C -1.7 °C 1015.1 hPa WNW 1.9 km/h   82% 0 mm WeatherDisplay:10.37 W/m2 CLR
03:05 1.1 °C -1.7 °C 1015.5 hPa Calm     82% 0 mm WeatherDisplay:10.37 W/m2 CLR
03:10 1.1 °C -1.7 °C 1015.5 hPa Calm   1.6 km/h 82% 0 mm WeatherDisplay:10.37 W/m2 CLR
03:15 1 °C -1.7 °C 1015.5 hPa Calm     82% 0 mm WeatherDisplay:10.37 W/m2 CLR
03:20 1 °C -1.7 °C 1015.5 hPa Calm   1.6 km/h 82% 0 mm WeatherDisplay:10.37 W/m2 CLR
03:25 0.9 °C -1.6 °C 1015.5 hPa Calm     83% 0 mm WeatherDisplay:10.37 W/m2 CLR
03:30 0.9 °C -1.7 °C 1015.5 hPa Calm     83% 0 mm WeatherDisplay:10.37 W/m2 CLR
03:35 0.9 °C -1.7 °C 1015.8 hPa Calm     83% 0 mm WeatherDisplay:10.37 W/m2 CLR
03:40 0.8 °C -1.7 °C 1015.8 hPa Calm     83% 0 mm WeatherDisplay:10.37 W/m2 CLR
03:45 0.8 °C -1.6 °C 1015.8 hPa WNW 1.9 km/h 1.9 km/h 84% 0 mm WeatherDisplay:10.37 W/m2 CLR
03:50 0.7 °C -1.7 °C 1015.8 hPa Calm     84% 0 mm WeatherDisplay:10.37 W/m2 CLR
03:55 0.7 °C -1.6 °C 1015.8 hPa Calm     85% 0 mm WeatherDisplay:10.37 W/m2 CLR
04:00 0.6 °C -1.6 °C 1015.8 hPa Calm     85% 0 mm WeatherDisplay:10.37 W/m2 CLR
04:05 0.6 °C -1.6 °C 1016.1 hPa Calm     85% 0 mm WeatherDisplay:10.37 W/m2 CLR
04:10 0.6 °C -1.7 °C 1016.1 hPa Calm     85% 0 mm WeatherDisplay:10.37 W/m2 CLR
04:15 0.5 °C -1.6 °C 1016.1 hPa Calm     86% 0 mm WeatherDisplay:10.37 W/m2 CLR
04:21 0.4 °C -1.6 °C 1016.1 hPa WNW 1.9 km/h   86% 0 mm WeatherDisplay:10.37 W/m2 CLR
04:26 0.4 °C -1.7 °C 1016.1 hPa Calm     86% 0 mm WeatherDisplay:10.37 W/m2 CLR
04:31 0.3 °C -1.7 °C 1016.1 hPa Calm     86% 0 mm WeatherDisplay:10.37 W/m2 CLR
04:36 0.3 °C -1.8 °C 1016.1 hPa Calm     86% 0 mm WeatherDisplay:10.37 W/m2 CLR
04:41 0.3 °C -1.6 °C 1016.1 hPa Calm     87% 0 mm WeatherDisplay:10.37 W/m2 CLR
04:46 0.2 °C -1.8 °C 1016.1 hPa Calm     86% 0 mm WeatherDisplay:10.37 W/m2 CLR
04:51 0.2 °C -1.7 °C 1016.1 hPa Calm     87% 0 mm WeatherDisplay:10.37 W/m2 CLR
04:56 0.2 °C -1.7 °C 1016.1 hPa Calm     87% 0 mm WeatherDisplay:10.37 W/m2 CLR
05:01 0.1 °C -1.8 °C 1016.5 hPa WNW 1.9 km/h   87% 0 mm WeatherDisplay:10.37 W/m2 CLR
05:06 0.1 °C -1.8 °C 1016.5 hPa Calm     87% 0 mm WeatherDisplay:10.37 W/m2 CLR
05:11 0.1 °C -1.8 °C 1016.5 hPa Calm     87% 0 mm WeatherDisplay:10.37 W/m2 CLR
05:16 0 °C -1.8 °C 1016.5 hPa Calm     88% 0 mm WeatherDisplay:10.37 W/m2 CLR
05:21 0 °C -1.8 °C 1016.8 hPa Calm     88% 0 mm WeatherDisplay:10.37 W/m2 CLR
05:26 0 °C -1.8 °C 1016.8 hPa WNW 1.9 km/h   88% 0 mm WeatherDisplay:10.37 W/m2 CLR
05:31 0 °C -1.8 °C 1016.8 hPa Calm     88% 0 mm WeatherDisplay:10.37 W/m2 CLR
05:36 0 °C -1.8 °C 1016.8 hPa Calm     88% 0 mm WeatherDisplay:10.37 W/m2 CLR
05:42 -0.1 °C -1.8 °C 1016.8 hPa Calm     88% 0 mm WeatherDisplay:10.37 W/m2 CLR
05:47 -0.1 °C -1.8 °C 1016.8 hPa Calm     88% 0 mm WeatherDisplay:10.37 W/m2 CLR
05:52 -0.1 °C -1.8 °C 1016.8 hPa Calm     88% 0 mm WeatherDisplay:10.37 W/m2 CLR
05:57 -0.2 °C -1.9 °C 1016.8 hPa Calm     88% 0 mm WeatherDisplay:10.37 W/m2 CLR
06:02 -0.2 °C -1.9 °C 1016.8 hPa Calm     88% 0 mm WeatherDisplay:10.37 W/m2 CLR
06:07 -0.2 °C -1.9 °C 1017.2 hPa Calm     88% 0 mm WeatherDisplay:10.37 W/m2 CLR
06:12 -0.3 °C -2 °C 1017.2 hPa Calm     88% 0 mm WeatherDisplay:10.37 W/m2 CLR
06:17 -0.3 °C -2.1 °C 1017.2 hPa Calm     88% 0 mm WeatherDisplay:10.37 W/m2 CLR
06:22 -0.4 °C -2.1 °C 1017.5 hPa Calm     88% 0 mm WeatherDisplay:10.37 W/m2 CLR
06:28 -0.4 °C -2.1 °C 1017.5 hPa Calm     89% 0 mm WeatherDisplay:10.37 W/m2 CLR
06:33 -0.4 °C -2.1 °C 1017.5 hPa Calm     89% 0 mm WeatherDisplay:10.37 W/m2 CLR
06:38 -0.4 °C -2.1 °C 1017.5 hPa Calm     89% 0 mm WeatherDisplay:10.37 W/m2 CLR
06:43 -0.4 °C -2.1 °C 1017.5 hPa Calm     89% 0 mm WeatherDisplay:10.37 W/m2 CLR
06:48 -0.5 °C -2.1 °C 1017.5 hPa Calm     89% 0 mm WeatherDisplay:10.37 W/m2 CLR
06:53 -0.5 °C -2.1 °C 1017.5 hPa Calm     89% 0 mm WeatherDisplay:10.37 W/m2 CLR
06:58 -0.4 °C -2.1 °C 1017.8 hPa Calm     89% 0 mm WeatherDisplay:10.37 W/m2 CLR
07:03 -0.4 °C -2.1 °C 1017.8 hPa Calm     89% 0 mm WeatherDisplay:10.37 W/m2 CLR
07:08 -0.4 °C -2.1 °C 1017.8 hPa Calm     89% 0 mm WeatherDisplay:10.37 W/m2 CLR
07:14 -0.4 °C -2.1 °C 1017.8 hPa Calm     89% 0 mm WeatherDisplay:10.37 W/m2 CLR
07:19 -0.5 °C -2.1 °C 1017.8 hPa Calm     89% 0 mm WeatherDisplay:10.37 W/m2 CLR
07:24 -0.5 °C -2.1 °C 1017.8 hPa Calm     89% 0 mm WeatherDisplay:10.37 W/m2 CLR
07:29 -0.5 °C -2.1 °C 1017.8 hPa Calm     89% 0 mm WeatherDisplay:10.37 W/m2 CLR
07:34 -0.6 °C -2.2 °C 1017.8 hPa Calm     89% 0 mm WeatherDisplay:10.37 W/m2 CLR
07:39 -0.6 °C -2.2 °C 1017.8 hPa Calm     89% 0 mm WeatherDisplay:10.37 W/m2 CLR
07:44 -0.6 °C -2 °C 1018.2 hPa Calm     90% 0 mm WeatherDisplay:10.37 W/m2 CLR
07:49 -0.6 °C -2 °C 1018.2 hPa Calm     90% 0 mm WeatherDisplay:10.37 W/m2 CLR
07:54 -0.6 °C -2 °C 1018.2 hPa Calm     90% 0 mm WeatherDisplay:10.37 W/m2 CLR
07:59 -0.6 °C -2 °C 1018.2 hPa Calm     90% 0 mm WeatherDisplay:10.37 W/m2 CLR
08:05 -0.5 °C -1.9 °C 1018.2 hPa Calm     90% 0 mm WeatherDisplay:10.37 W/m2 CLR
08:10 -0.4 °C -1.9 °C 1018.5 hPa Calm     90% 0 mm WeatherDisplay:10.37 W/m2 CLR
08:15 -0.4 °C -1.8 °C 1018.5 hPa Calm     90% 0 mm WeatherDisplay:10.37 W/m2 CLR
08:20 -0.3 °C -1.7 °C 1018.5 hPa Calm     90% 0 mm WeatherDisplay:10.37 W/m2 CLR
08:25 -0.1 °C -1.6 °C 1018.5 hPa Calm     90% 0 mm WeatherDisplay:10.37 W/m2 CLR
08:30 0 °C -1.4 °C 1018.5 hPa Calm     90% 0 mm WeatherDisplay:10.37 W/m2 CLR
08:35 0.2 °C -1.3 °C 1018.5 hPa Calm     90% 0 mm WeatherDisplay:10.37 W/m2 CLR
08:40 0.3 °C -1.2 °C 1018.5 hPa Calm     90% 0 mm WeatherDisplay:10.37 W/m2 CLR
08:45 0.5 °C -0.9 °C 1018.5 hPa Calm     90% 0 mm WeatherDisplay:10.37 W/m2 CLR
08:50 0.7 °C -0.9 °C 1018.5 hPa Calm     89% 0 mm WeatherDisplay:10.37 W/m2 CLR
08:55 0.9 °C -0.7 °C 1018.8 hPa Calm     89% 0 mm WeatherDisplay:10.37 W/m2 CLR
09:00 1.1 °C -0.5 °C 1018.5 hPa Calm   1.6 km/h 89% 0 mm WeatherDisplay:10.37 W/m2 CLR
09:05 1.4 °C -0.4 °C 1018.8 hPa Calm     88% 0 mm WeatherDisplay:10.37 W/m2 CLR
09:10 1.7 °C -0.4 °C 1018.8 hPa Calm     86% 0 mm WeatherDisplay:10.37 W/m2 CLR
09:15 2.1 °C -0.5 °C 1018.8 hPa Calm   1.6 km/h 83% 0 mm WeatherDisplay:10.37 W/m2 CLR
09:20 2.4 °C -0.3 °C 1018.8 hPa Calm     82% 0 mm WeatherDisplay:10.37 W/m2 CLR
09:25 2.7 °C -0.4 °C 1019.2 hPa Calm   1.6 km/h 80% 0 mm WeatherDisplay:10.37 W/m2 CLR
09:35 3.3 °C -0.2 °C 1019.2 hPa Calm   1.6 km/h 78% 0 mm WeatherDisplay:10.37 W/m2 CLR
09:40 3.5 °C -0.1 °C 1019.2 hPa Calm   1.6 km/h 77% 0 mm WeatherDisplay:10.37 W/m2 CLR
09:45 3.8 °C -0.1 °C 1019.2 hPa Calm   3.2 km/h 76% 0 mm WeatherDisplay:10.37 W/m2 CLR
09:50 4 °C -0.1 °C 1019.2 hPa Calm   3.2 km/h 75% 0 mm WeatherDisplay:10.37 W/m2 CLR
09:55 4.2 °C 0 °C 1019.5 hPa Calm   3.2 km/h 74% 0 mm WeatherDisplay:10.37 W/m2 CLR
10:00 4.5 °C 0.1 °C 1019.2 hPa Calm     73% 0 mm WeatherDisplay:10.37 W/m2 CLR
10:05 4.8 °C 0.2 °C 1019.2 hPa Calm   1.6 km/h 72% 0 mm WeatherDisplay:10.37 W/m2 CLR
10:10 5.2 °C 0.2 °C 1019.2 hPa Calm   1.6 km/h 70% 0 mm WeatherDisplay:10.37 W/m2 CLR
10:15 5.4 °C 0.2 °C 1019.2 hPa Calm     69% 0 mm WeatherDisplay:10.37 W/m2 CLR
10:20 5.6 °C 0.7 °C 1019.5 hPa Calm   1.6 km/h 71% 0 mm WeatherDisplay:10.37 W/m2 CLR
10:25 5.8 °C 0.5 °C 1019.5 hPa Calm   4.8 km/h 69% 0 mm WeatherDisplay:10.37 W/m2 CLR
10:30 5.9 °C 0.3 °C 1019.5 hPa Calm   3.2 km/h 67% 0 mm WeatherDisplay:10.37 W/m2 CLR
10:35 6.2 °C 0.7 °C 1019.5 hPa Calm   1.6 km/h 68% 0 mm WeatherDisplay:10.37 W/m2 CLR
10:40 6.4 °C 0.3 °C 1019.5 hPa NNW 1.9 km/h 1.9 km/h 65% 0 mm WeatherDisplay:10.37 W/m2 CLR
10:45 6.6 °C 0.5 °C 1019.5 hPa Calm   1.6 km/h 65% 0 mm WeatherDisplay:10.37 W/m2 CLR
10:50 7 °C 0.6 °C 1019.5 hPa Calm   3.2 km/h 64% 0 mm WeatherDisplay:10.37 W/m2 CLR
10:55 7.4 °C 0.9 °C 1019.5 hPa Calm   3.2 km/h 63% 0 mm WeatherDisplay:10.37 W/m2 CLR
11:00 7.9 °C 1.1 °C 1019.5 hPa Calm   3.2 km/h 62% 0 mm WeatherDisplay:10.37 W/m2 CLR
11:05 8.3 °C 1.2 °C 1019.9 hPa Calm   3.2 km/h 61% 0 mm WeatherDisplay:10.37 W/m2 CLR
11:10 8.8 °C 0.7 °C 1019.5 hPa Calm   3.2 km/h 57% 0 mm WeatherDisplay:10.37 W/m2 CLR
11:15 9.2 °C 1.1 °C 1019.5 hPa Calm   1.6 km/h 57% 0 mm WeatherDisplay:10.37 W/m2 CLR
11:20 9.6 °C 1 °C 1019.9 hPa Calm   1.6 km/h 55% 0 mm WeatherDisplay:10.37 W/m2 CLR
11:25 9.9 °C 1.1 °C 1019.5 hPa East 1.6 km/h 4.8 km/h 54% 0 mm WeatherDisplay:10.37 W/m2 CLR
11:30 10.1 °C 0.6 °C 1019.5 hPa Calm   4.8 km/h 52% 0 mm WeatherDisplay:10.37 W/m2 CLR
11:35 10.1 °C 0.9 °C 1019.5 hPa ENE 1.9 km/h 1.9 km/h 53% 0 mm WeatherDisplay:10.37 W/m2 CLR
11:40 10.3 °C 0.8 °C 1019.5 hPa West 3.7 km/h 3.7 km/h 52% 0 mm WeatherDisplay:10.37 W/m2 CLR
11:45 10.4 °C 0.7 °C 1019.9 hPa SW 5 km/h 5 km/h 51% 0 mm WeatherDisplay:10.37 W/m2 CLR
11:55 10.6 °C 0.6 °C 1019.9 hPa West 3.7 km/h   50% 0 mm WeatherDisplay:10.37 W/m2 CLR
12:00 10.7 °C 0.9 °C 1019.9 hPa SW 3.7 km/h 3.7 km/h 51% 0 mm WeatherDisplay:10.37 W/m2 CLR
12:05 10.7 °C 0.9 °C 1019.9 hPa West 1.9 km/h 1.9 km/h 51% 0 mm WeatherDisplay:10.37 W/m2 CLR
12:10 10.8 °C -0.1 °C 1019.9 hPa SSW 3.7 km/h 3.7 km/h 47% 0 mm WeatherDisplay:10.37 W/m2 CLR
12:16 10.8 °C 0.8 °C 1019.9 hPa SE 3.7 km/h 3.7 km/h 50% 0 mm WeatherDisplay:10.37 W/m2 CLR
12:21 11 °C 1.2 °C 1019.5 hPa NW 1.9 km/h 1.9 km/h 51% 0 mm WeatherDisplay:10.37 W/m2 CLR
12:26 11.2 °C 0.6 °C 1019.5 hPa East 1.9 km/h 1.9 km/h 48% 0 mm WeatherDisplay:10.37 W/m2 CLR
12:31 11.5 °C 0.6 °C 1019.5 hPa SW 3.2 km/h 3.2 km/h 47% 0 mm WeatherDisplay:10.37 W/m2 CLR
12:36 11.8 °C 1.7 °C 1019.5 hPa WNW 1.9 km/h 1.9 km/h 50% 0 mm WeatherDisplay:10.37 W/m2 CLR
12:41 12.1 °C 1.7 °C 1019.5 hPa East 3.7 km/h 3.7 km/h 49% 0 mm WeatherDisplay:10.37 W/m2 CLR
12:46 12.3 °C 1.3 °C 1019.5 hPa SE 1.9 km/h 1.9 km/h 47% 0 mm WeatherDisplay:10.37 W/m2 CLR
12:56 12.6 °C 2.2 °C 1019.5 hPa North 1.6 km/h 1.6 km/h 49% 0 mm WeatherDisplay:10.37 W/m2 CLR
13:01 12.8 °C 2.4 °C 1019.5 hPa Calm     49% 0 mm WeatherDisplay:10.37 W/m2 CLR
13:06 13.1 °C 1.7 °C 1019.2 hPa SW 8.2 km/h 8.2 km/h 46% 0 mm WeatherDisplay:10.37 W/m2 CLR
13:11 13.1 °C 1.7 °C 1019.2 hPa NW 3.7 km/h 3.7 km/h 46% 0 mm WeatherDisplay:10.37 W/m2 CLR
13:16 13.2 °C 2.1 °C 1019.2 hPa SE 1.9 km/h 1.9 km/h 47% 0 mm WeatherDisplay:10.37 W/m2 CLR
13:22 13.3 °C 1.9 °C 1019.2 hPa WNW 7.4 km/h 7.4 km/h 46% 0 mm WeatherDisplay:10.37 W/m2 CLR
13:27 13.4 °C 2.3 °C 1019.2 hPa Calm     47% 0 mm WeatherDisplay:10.37 W/m2 CLR
13:32 13.6 °C 2.5 °C 1019.2 hPa Calm     47% 0 mm WeatherDisplay:10.37 W/m2 CLR
13:37 13.8 °C 2.1 °C 1018.8 hPa SSW 1.9 km/h 1.9 km/h 45% 0 mm WeatherDisplay:10.37 W/m2 CLR
13:42 14.1 °C 2.3 °C 1018.8 hPa South 5.6 km/h 5.6 km/h 45% 0 mm WeatherDisplay:10.37 W/m2 CLR
13:47 14.3 °C 2.2 °C 1018.8 hPa WSW 3.7 km/h 3.7 km/h 44% 0 mm WeatherDisplay:10.37 W/m2 CLR
13:52 14.5 °C 1.7 °C 1018.8 hPa South 1.9 km/h 1.9 km/h 42% 0 mm WeatherDisplay:10.37 W/m2 CLR
13:57 14.7 °C 2.8 °C 1018.8 hPa NNE 5.6 km/h 5.6 km/h 45% 0 mm WeatherDisplay:10.37 W/m2 CLR
14:02 14.9 °C 2.1 °C 1018.8 hPa WSW 1.9 km/h 1.9 km/h 42% 0 mm WeatherDisplay:10.37 W/m2 CLR
14:08 15.1 °C 3.3 °C 1018.5 hPa SSW 3.7 km/h   45% 0 mm WeatherDisplay:10.37 W/m2 CLR
14:13 15.5 °C 2.6 °C 1018.5 hPa West 1.9 km/h 1.9 km/h 42% 0 mm WeatherDisplay:10.37 W/m2 CLR
14:18 15.7 °C 2.8 °C 1018.5 hPa North 1.9 km/h 1.9 km/h 42% 0 mm WeatherDisplay:10.37 W/m2 CLR
14:23 15.7 °C 3.2 °C 1018.2 hPa West 1.9 km/h   43% 0 mm WeatherDisplay:10.37 W/m2 CLR
14:28 15.8 °C 1.5 °C 1018.2 hPa NNW 1.9 km/h 1.9 km/h 38% 0 mm WeatherDisplay:10.37 W/m2 CLR
14:33 16.1 °C 3.1 °C 1018.2 hPa NW 1.9 km/h 1.9 km/h 42% 0 mm WeatherDisplay:10.37 W/m2 CLR
14:38 16.3 °C 2.7 °C 1018.2 hPa NW 1.9 km/h 1.9 km/h 40% 0 mm WeatherDisplay:10.37 W/m2 CLR
14:43 16.3 °C 2.7 °C 1017.8 hPa Calm   0.2 km/h 40% 0 mm WeatherDisplay:10.37 W/m2 CLR
14:48 16.4 °C 4.4 °C 1017.8 hPa Calm     45% 0 mm WeatherDisplay:10.37 W/m2 CLR
14:54 16.5 °C 2.8 °C 1017.8 hPa NW 1.9 km/h 1.9 km/h 40% 0 mm WeatherDisplay:10.37 W/m2 CLR
15:04 16.6 °C 2.9 °C 1017.8 hPa Calm     40% 0 mm WeatherDisplay:10.37 W/m2 CLR
15:09 16.7 °C 3.3 °C 1017.8 hPa WNW 1.9 km/h   41% 0 mm WeatherDisplay:10.37 W/m2 CLR
15:14 16.7 °C 1.9 °C 1017.8 hPa West 5.6 km/h 5.6 km/h 37% 0 mm WeatherDisplay:10.37 W/m2 CLR
15:19 16.7 °C 1.9 °C 1017.8 hPa NW 3.7 km/h 3.7 km/h 37% 0 mm WeatherDisplay:10.37 W/m2 CLR
15:24 16.7 °C 3.4 °C 1017.8 hPa West 1.9 km/h 1.9 km/h 41% 0 mm WeatherDisplay:10.37 W/m2 CLR
15:29 16.8 °C 2 °C 1017.8 hPa West 3.7 km/h 3.7 km/h 37% 0 mm WeatherDisplay:10.37 W/m2 CLR
15:34 16.8 °C 2 °C 1017.8 hPa West 1.9 km/h   37% 0 mm WeatherDisplay:10.37 W/m2 CLR
15:39 16.7 °C 2.3 °C 1017.8 hPa Calm     38% 0 mm WeatherDisplay:10.37 W/m2 CLR
15:44 16.7 °C 2.7 °C 1017.8 hPa WSW 1.9 km/h 1.9 km/h 39% 0 mm WeatherDisplay:10.37 W/m2 CLR
16:00 16.6 °C 2.6 °C 1017.5 hPa West 1.6 km/h 8 km/h 39% 0 mm WeatherDisplay:10.37 W/m2 CLR
16:05 16.6 °C 2.6 °C 1017.5 hPa Calm   1.6 km/h 39% 0 mm WeatherDisplay:10.37 W/m2 CLR
16:10 16.6 °C 3.6 °C 1017.5 hPa Calm     42% 0 mm WeatherDisplay:10.37 W/m2 CLR
16:14 16.6 °C 3.2 °C 1017.5 hPa Calm     41% 0 mm WeatherDisplay:10.37 W/m2 CLR
16:20 16.6 °C 3.9 °C 1017.5 hPa Calm   1.6 km/h 43% 0 mm WeatherDisplay:10.37 W/m2 CLR
16:25 16.4 °C 4.2 °C 1017.5 hPa Calm   1.6 km/h 44% 0 mm WeatherDisplay:10.37 W/m2 CLR
16:30 16.5 °C 3.5 °C 1017.5 hPa West 1.6 km/h 4.8 km/h 42% 0 mm WeatherDisplay:10.37 W/m2 CLR
16:35 16.4 °C 4.4 °C 1017.5 hPa Calm   1.6 km/h 45% 0 mm WeatherDisplay:10.37 W/m2 CLR
16:40 16.4 °C 3.8 °C 1017.5 hPa Calm     43% 0 mm WeatherDisplay:10.37 W/m2 CLR
16:45 16.4 °C 4.4 °C 1017.5 hPa Calm   1.6 km/h 45% 0 mm WeatherDisplay:10.37 W/m2 CLR
16:50 16.3 °C 5.3 °C 1017.5 hPa Calm     48% 0 mm WeatherDisplay:10.37 W/m2 CLR
16:55 16.1 °C 5.1 °C 1017.5 hPa Calm   1.6 km/h 48% 0 mm WeatherDisplay:10.37 W/m2 CLR
17:00 16.1 °C 5.3 °C 1017.5 hPa Calm   1.6 km/h 49% 0 mm WeatherDisplay:10.37 W/m2 CLR
17:05 15.9 °C 5.2 °C 1017.5 hPa Calm   1.6 km/h 49% 0 mm WeatherDisplay:10.37 W/m2 CLR
17:10 15.7 °C 5.6 °C 1017.5 hPa Calm   1.6 km/h 51% 0 mm WeatherDisplay:10.37 W/m2 CLR
17:15 15.5 °C 5.4 °C 1017.5 hPa Calm   1.6 km/h 51% 0 mm WeatherDisplay:10.37 W/m2 CLR
17:20 15.4 °C 5.6 °C 1017.5 hPa Calm   1.6 km/h 52% 0 mm WeatherDisplay:10.37 W/m2 CLR
17:25 15.3 °C 5.8 °C 1017.5 hPa Calm   1.6 km/h 53% 0 mm WeatherDisplay:10.37 W/m2 CLR
17:30 15.1 °C 5.6 °C 1017.5 hPa Calm   1.6 km/h 53% 0 mm WeatherDisplay:10.37 W/m2 CLR
17:35 15 °C 5.7 °C 1017.5 hPa Calm   1.6 km/h 54% 0 mm WeatherDisplay:10.37 W/m2 CLR
17:40 14.8 °C 5.6 °C 1017.5 hPa Calm   1.6 km/h 54% 0 mm WeatherDisplay:10.37 W/m2 CLR
17:45 14.7 °C 5.7 °C 1017.8 hPa Calm   1.6 km/h 55% 0 mm WeatherDisplay:10.37 W/m2 CLR
17:50 14.6 °C 5.9 °C 1017.8 hPa Calm     56% 0 mm WeatherDisplay:10.37 W/m2 CLR
17:55 14.4 °C 5.4 °C 1017.8 hPa Calm     55% 0 mm WeatherDisplay:10.37 W/m2 CLR
18:05 14.2 °C 5.5 °C 1017.8 hPa East 1.9 km/h   56% 0 mm WeatherDisplay:10.37 W/m2 CLR
18:10 14.1 °C 5.7 °C 1017.8 hPa Calm     57% 0 mm WeatherDisplay:10.37 W/m2 CLR
18:15 14 °C 5.6 °C 1017.8 hPa Calm     57% 0 mm WeatherDisplay:10.37 W/m2 CLR
18:20 13.9 °C 5.8 °C 1017.8 hPa Calm     58% 0 mm WeatherDisplay:10.37 W/m2 CLR
18:25 13.8 °C 6.2 °C 1017.8 hPa Calm     60% 0 mm WeatherDisplay:10.37 W/m2 CLR
18:31 13.6 °C 6 °C 1017.8 hPa Calm     60% 0 mm WeatherDisplay:10.37 W/m2 CLR
18:36 13.5 °C 6.3 °C 1017.8 hPa Calm     62% 0 mm WeatherDisplay:10.37 W/m2 CLR
18:41 13.3 °C 6.4 °C 1017.8 hPa Calm     63% 0 mm WeatherDisplay:10.37 W/m2 CLR
18:46 13.1 °C 6.4 °C 1017.8 hPa Calm     64% 0 mm WeatherDisplay:10.37 W/m2 CLR
18:51 12.9 °C 6.2 °C 1018.2 hPa Calm     64% 0 mm WeatherDisplay:10.37 W/m2 CLR
18:56 12.6 °C 6.2 °C 1018.2 hPa Calm     65% 0 mm WeatherDisplay:10.37 W/m2 CLR
19:01 12.4 °C 6.4 °C 1018.2 hPa Calm     67% 0 mm WeatherDisplay:10.37 W/m2 CLR
19:06 12.2 °C 6.2 °C 1018.2 hPa Calm     67% 0 mm WeatherDisplay:10.37 W/m2 CLR
19:11 12.2 °C 6.4 °C 1018.2 hPa Calm     68% 0 mm WeatherDisplay:10.37 W/m2 CLR
19:16 12.1 °C 6.1 °C 1018.2 hPa Calm     67% 0 mm WeatherDisplay:10.37 W/m2 CLR
19:22 11.8 °C 6.1 °C 1018.2 hPa Calm     68% 0 mm WeatherDisplay:10.37 W/m2 CLR
19:27 11.7 °C 6.2 °C 1018.5 hPa Calm     69% 0 mm WeatherDisplay:10.37 W/m2 CLR
19:32 11.6 °C 6.1 °C 1018.5 hPa Calm     69% 0 mm WeatherDisplay:10.37 W/m2 CLR
19:37 11.4 °C 6.1 °C 1018.5 hPa Calm     70% 0 mm WeatherDisplay:10.37 W/m2 CLR
19:42 11.2 °C 6.2 °C 1018.5 hPa Calm     71% 0 mm WeatherDisplay:10.37 W/m2 CLR
19:47 11.1 °C 6.1 °C 1018.5 hPa Calm     71% 0 mm WeatherDisplay:10.37 W/m2 CLR
19:52 10.9 °C 6.1 °C 1018.5 hPa Calm     72% 0 mm WeatherDisplay:10.37 W/m2 CLR
19:57 10.8 °C 6.1 °C 1018.5 hPa Calm     73% 0 mm WeatherDisplay:10.37 W/m2 CLR
20:02 10.7 °C 6 °C 1018.5 hPa Calm     73% 0 mm WeatherDisplay:10.37 W/m2 CLR
20:07 10.6 °C 6.3 °C 1018.8 hPa Calm     75% 0 mm WeatherDisplay:10.37 W/m2 CLR
20:12 10.4 °C 6.2 °C 1018.8 hPa Calm     75% 0 mm WeatherDisplay:10.37 W/m2 CLR
20:18 10.4 °C 6.3 °C 1018.8 hPa Calm     76% 0 mm WeatherDisplay:10.37 W/m2 CLR
20:23 10.3 °C 6.3 °C 1018.8 hPa Calm     76% 0 mm WeatherDisplay:10.37 W/m2 CLR
20:28 10.3 °C 6.2 °C 1018.8 hPa Calm     76% 0 mm WeatherDisplay:10.37 W/m2 CLR
20:33 10.3 °C 6.2 °C 1018.8 hPa Calm     76% 0 mm WeatherDisplay:10.37 W/m2 CLR
20:38 10.2 °C 6.2 °C 1018.8 hPa Calm     76% 0 mm WeatherDisplay:10.37 W/m2 CLR
20:43 10.2 °C 6.3 °C 1018.8 hPa Calm     77% 0 mm WeatherDisplay:10.37 W/m2 CLR
20:48 10.1 °C 6.4 °C 1018.8 hPa Calm     78% 0 mm WeatherDisplay:10.37 W/m2 CLR
20:53 10.2 °C 6.3 °C 1018.8 hPa Calm     77% 0 mm WeatherDisplay:10.37 W/m2 CLR
20:59 10.4 °C 6.4 °C 1018.8 hPa Calm     76% 0 mm WeatherDisplay:10.37 W/m2 CLR
21:04 10.6 °C 6.3 °C 1018.8 hPa Calm     75% 0 mm WeatherDisplay:10.37 W/m2 CLR
21:09 10.7 °C 6.4 °C 1018.8 hPa Calm     75% 0 mm WeatherDisplay:10.37 W/m2 CLR
21:14 10.7 °C 6.3 °C 1018.8 hPa Calm     74% 0 mm WeatherDisplay:10.37 W/m2 CLR
21:19 10.8 °C 6.1 °C 1018.8 hPa Calm     73% 0 mm WeatherDisplay:10.37 W/m2 CLR
21:24 10.7 °C 6.3 °C 1019.2 hPa Calm     74% 0 mm WeatherDisplay:10.37 W/m2 CLR
21:29 10.6 °C 6.3 °C 1019.2 hPa Calm     75% 0 mm WeatherDisplay:10.37 W/m2 CLR
21:34 10.5 °C 6.3 °C 1019.2 hPa Calm     75% 0 mm WeatherDisplay:10.37 W/m2 CLR
21:39 10.4 °C 6.3 °C 1019.2 hPa Calm     76% 0 mm WeatherDisplay:10.37 W/m2 CLR
21:44 10.3 °C 6.2 °C 1019.2 hPa Calm     76% 0 mm WeatherDisplay:10.37 W/m2 CLR
21:50 10.2 °C 6.4 °C 1019.2 hPa Calm     77% 0 mm WeatherDisplay:10.37 W/m2 CLR
21:55 10.2 °C 6.4 °C 1019.2 hPa Calm     77% 0 mm WeatherDisplay:10.37 W/m2 CLR
22:00 10.3 °C 6.4 °C 1019.2 hPa Calm     77% 0 mm WeatherDisplay:10.37 W/m2 CLR
22:05 10.3 °C 6.4 °C 1019.2 hPa Calm     77% 0 mm WeatherDisplay:10.37 W/m2 CLR
22:10 10.3 °C 6.2 °C 1019.2 hPa Calm     76% 0 mm WeatherDisplay:10.37 W/m2 CLR
22:15 10.3 °C 6.3 °C 1019.2 hPa Calm     76% 0 mm WeatherDisplay:10.37 W/m2 CLR
22:20 10.3 °C 6.2 °C 1019.2 hPa Calm     76% 0 mm WeatherDisplay:10.37 W/m2 CLR
22:25 10.2 °C 6.4 °C 1019.5 hPa Calm     77% 0 mm WeatherDisplay:10.37 W/m2 CLR
22:30 10.2 °C 6.3 °C 1019.2 hPa Calm     77% 0 mm WeatherDisplay:10.37 W/m2 CLR
22:35 10.1 °C 6.2 °C 1019.5 hPa Calm     77% 0 mm WeatherDisplay:10.37 W/m2 CLR
22:40 10.1 °C 6.2 °C 1019.5 hPa Calm     77% 0 mm WeatherDisplay:10.37 W/m2 CLR
22:45 10.1 °C 6.2 °C 1019.5 hPa Calm     77% 0 mm WeatherDisplay:10.37 W/m2 CLR
22:50 10.1 °C 6.2 °C 1019.5 hPa Calm     77% 0 mm WeatherDisplay:10.37 W/m2 CLR
22:55 10.1 °C 6.2 °C 1019.5 hPa Calm     77% 0 mm WeatherDisplay:10.37 W/m2 CLR
23:00 10.1 °C 6.2 °C 1019.5 hPa Calm     77% 0 mm WeatherDisplay:10.37 W/m2 CLR
23:05 9.9 °C 6.3 °C 1019.5 hPa Calm     78% 0 mm WeatherDisplay:10.37 W/m2 CLR
23:10 9.8 °C 6.2 °C 1019.5 hPa Calm     78% 0 mm WeatherDisplay:10.37 W/m2 CLR
23:16 9.8 °C 6.1 °C 1019.5 hPa Calm     78% 0 mm WeatherDisplay:10.37 W/m2 CLR
23:22 9.7 °C 6.2 °C 1019.5 hPa Calm     79% 0 mm WeatherDisplay:10.37 W/m2 CLR
23:25 9.6 °C 6.2 °C 1019.5 hPa Calm     79% 0 mm WeatherDisplay:10.37 W/m2 CLR
23:27 9.6 °C 6.1 °C 1019.5 hPa Calm     79% 0 mm WeatherDisplay:10.37 W/m2 CLR
23:29 9.5 °C 6.2 °C 1019.5 hPa Calm     80% 0 mm WeatherDisplay:10.37 W/m2 CLR
23:31 9.5 °C 6.2 °C 1019.5 hPa Calm     80% 0 mm WeatherDisplay:10.37 W/m2 CLR
23:36 9.4 °C 6.1 °C 1019.5 hPa Calm     80% 0 mm WeatherDisplay:10.37 W/m2 CLR
23:41 9.4 °C 6.3 °C 1019.9 hPa Calm     81% 0 mm WeatherDisplay:10.37 W/m2 CLR
23:46 9.3 °C 6.2 °C 1019.9 hPa Calm     81% 0 mm WeatherDisplay:10.37 W/m2 CLR
23:51 9.3 °C 6.2 °C 1019.9 hPa Calm     81% 0 mm WeatherDisplay:10.37 W/m2 CLR
23:56 9.3 °C 6.2 °C 1019.9 hPa Calm     81% 0 mm WeatherDisplay:10.37 W/m2 CLR
Piedmont Bend
Compliments of Weather Underground - 4 mb